Tracking 35331 objects as of 15-Sep-2026
HD Live streaming from Space Station
objects crossing your sky now

COSMOS 1670 DEB (ANTENNA


COSMOS 1670 DEB (ANTENNA is no longer on orbit


NORAD ID: 16195
Int'l Code: 1985-064B
Launch date: August 1, 1985
Source: Commonwealth of Independent States (former USSR) (CIS)
Launch site: TYURATAM MISSILE AND SPACE COMPLEX (TTMTR)
Decay date: 1985-10-27

Note: This is SATELLITE DEBRIS
Your satellite tracking list
Your tracking list is empty




NASA's NSSDC Master Catalog

Two Line Element Set (TLE):
1 16195U 85064  B 85300.42066456  .11992377 +31937-4 +14198-2 0  9995
2 16195 065.0045 109.0258 0009331 280.0395 080.0254 16.36039690014010
Source of the keplerian elements: AFSPC